TimeAKST,TemperatureF,Dew PointF,Humidity,Sea Level PressureIn,VisibilityMPH,Wind Direction,Wind SpeedMPH,Gust SpeedMPH,PrecipitationIn,Events,Conditions,WindDirDegrees,DateUTC
12:16 AM,-14.8,-18.4,84,30.32,10.0,South,3.5,-,N/A,,Clear,190,2012-11-13 09:16:00
12:36 AM,-14.8,-22.0,70,30.32,10.0,SSE,5.8,-,N/A,,Clear,160,2012-11-13 09:36:00
12:56 AM,-13.0,-14.8,92,30.32,10.0,Calm,Calm,-,N/A,,Clear,0,2012-11-13 09:56:00
1:16 AM,-11.2,-18.4,70,30.33,10.0,Calm,Calm,-,N/A,,Clear,0,2012-11-13 10:16:00
1:36 AM,-11.2,-16.6,77,30.32,10.0,Calm,Calm,-,N/A,,Clear,0,2012-11-13 10:36:00
1:56 AM,-11.2,-16.6,77,30.32,10.0,Calm,Calm,-,N/A,,Clear,0,2012-11-13 10:56:00
2:16 AM,-11.2,-18.4,70,30.31,10.0,Calm,Calm,-,N/A,,Clear,0,2012-11-13 11:16:00
2:36 AM,-11.2,-14.8,84,30.30,10.0,Calm,Calm,-,N/A,,Clear,0,2012-11-13 11:36:00
2:56 AM,-11.2,-20.2,64,30.30,10.0,Calm,Calm,-,N/A,,Clear,0,2012-11-13 11:56:00
3:16 AM,-11.2,-11.2,100,30.29,10.0,SSE,5.8,-,N/A,,Clear,160,2012-11-13 12:16:00
3:36 AM,-11.2,-25.6,49,30.29,10.0,SE,3.5,-,N/A,,Clear,140,2012-11-13 12:36:00
3:56 AM,-9.4,-13.0,84,30.27,10.0,East,4.6,-,N/A,,Clear,100,2012-11-13 12:56:00
4:16 AM,-9.4,-9999,N/A,30.26,10.0,SE,4.6,-,N/A,,Clear,140,2012-11-13 13:16:00
4:36 AM,-9.4,-20.2,59,30.26,10.0,Calm,Calm,-,N/A,,Clear,0,2012-11-13 13:36:00
4:56 AM,-11.2,-14.8,84,30.24,10.0,Calm,Calm,-,N/A,,Clear,0,2012-11-13 13:56:00
5:16 AM,-11.2,-16.6,77,30.23,10.0,SSE,4.6,-,N/A,,Clear,160,2012-11-13 14:16:00
5:36 AM,-11.2,-14.8,84,30.23,10.0,Calm,Calm,-,N/A,,Clear,0,2012-11-13 14:36:00
5:56 AM,-11.2,-18.4,70,30.23,10.0,South,4.6,-,N/A,,Clear,180,2012-11-13 14:56:00
6:16 AM,-9.4,-13.0,84,30.23,10.0,Calm,Calm,-,N/A,,Clear,0,2012-11-13 15:16:00
6:36 AM,-9.4,-14.8,77,30.23,10.0,SE,5.8,-,N/A,,Clear,130,2012-11-13 15:36:00
6:56 AM,-9.4,-14.8,77,30.23,10.0,SE,5.8,-,N/A,,Clear,130,2012-11-13 15:56:00
7:16 AM,-9.4,-11.2,92,30.22,10.0,Calm,Calm,-,N/A,,Clear,0,2012-11-13 16:16:00
7:36 AM,-9.4,-16.6,71,30.22,10.0,Calm,Calm,-,N/A,,Clear,0,2012-11-13 16:36:00
7:56 AM,-9.4,-9.4,100,30.21,10.0,Calm,Calm,-,N/A,,Clear,0,2012-11-13 16:56:00
8:16 AM,-9.4,-18.4,65,30.21,10.0,Calm,Calm,-,N/A,,Clear,0,2012-11-13 17:16:00
8:36 AM,-9.4,-13.0,84,30.20,10.0,Calm,Calm,-,N/A,,Clear,0,2012-11-13 17:36:00
8:56 AM,-9.4,-16.6,71,30.20,10.0,Calm,Calm,-,N/A,,Clear,0,2012-11-13 17:56:00
9:16 AM,-9.4,-14.8,77,30.19,10.0,Calm,Calm,-,N/A,,Clear,0,2012-11-13 18:16:00
9:36 AM,-9.4,-14.8,77,30.19,10.0,Calm,Calm,-,N/A,,Clear,0,2012-11-13 18:36:00
9:56 AM,-9.4,-14.8,77,30.18,10.0,Calm,Calm,-,N/A,,Clear,0,2012-11-13 18:56:00
10:16 AM,-7.6,-11.2,84,30.18,10.0,Calm,Calm,-,N/A,,Clear,0,2012-11-13 19:16:00
10:36 AM,-5.8,-11.2,77,30.17,10.0,Calm,Calm,-,N/A,,Clear,0,2012-11-13 19:36:00
10:56 AM,-5.8,-11.2,77,30.17,10.0,Calm,Calm,-,N/A,,Clear,0,2012-11-13 19:56:00
11:16 AM,-5.8,-5.8,100,30.17,10.0,Calm,Calm,-,N/A,,Clear,0,2012-11-13 20:16:00
11:36 AM,-4.0,-29.2,29,30.16,10.0,Calm,Calm,-,N/A,,Clear,0,2012-11-13 20:36:00
11:56 AM,-4.0,-4.0,100,30.16,10.0,Calm,Calm,-,N/A,,Clear,0,2012-11-13 20:56:00
12:16 PM,-4.0,-14.8,60,30.15,10.0,Calm,Calm,-,N/A,,Clear,0,2012-11-13 21:16:00
12:36 PM,-4.0,-7.6,85,30.13,10.0,Calm,Calm,-,N/A,,Clear,0,2012-11-13 21:36:00
12:56 PM,-4.0,-5.8,92,30.13,10.0,Calm,Calm,-,N/A,,Clear,0,2012-11-13 21:56:00
1:16 PM,-2.2,-9.4,71,30.12,10.0,Calm,Calm,-,N/A,,Clear,0,2012-11-13 22:16:00
1:36 PM,-2.2,-5.8,85,30.10,10.0,Calm,Calm,-,N/A,,Clear,0,2012-11-13 22:36:00
1:56 PM,-2.2,-2.2,100,30.10,5.0,Calm,Calm,-,N/A,,Clear,0,2012-11-13 22:56:00
2:16 PM,-0.4,-5.8,78,30.09,10.0,Calm,Calm,-,N/A,,Clear,0,2012-11-13 23:16:00
2:36 PM,-0.4,-2.2,92,30.08,10.0,Calm,Calm,-,N/A,,Clear,0,2012-11-13 23:36:00
2:56 PM,-0.4,-2.2,92,30.06,7.0,Calm,Calm,-,N/A,,Clear,0,2012-11-13 23:56:00
3:16 PM,-0.4,-2.2,92,30.05,4.0,Calm,Calm,-,N/A,,Clear,0,2012-11-14 00:16:00
3:36 PM,-0.4,-2.2,92,30.04,5.0,Calm,Calm,-,N/A,,Clear,0,2012-11-14 00:36:00
3:56 PM,-0.4,-4.0,85,30.03,9.0,Calm,Calm,-,N/A,,Clear,0,2012-11-14 00:56:00
4:16 PM,-0.4,-2.2,92,30.01,10.0,Calm,Calm,-,N/A,,Clear,0,2012-11-14 01:16:00
4:36 PM,-0.4,-2.2,92,30.00,10.0,Calm,Calm,-,N/A,,Clear,0,2012-11-14 01:36:00
4:56 PM,-0.4,-2.2,92,29.99,10.0,Calm,Calm,-,N/A,,Clear,0,2012-11-14 01:56:00
5:16 PM,-0.4,-4.0,85,29.99,10.0,Calm,Calm,-,N/A,,Clear,0,2012-11-14 02:16:00
5:36 PM,-0.4,-2.2,92,29.97,10.0,Calm,Calm,-,N/A,,Clear,0,2012-11-14 02:36:00
5:56 PM,-0.4,-2.2,92,29.97,10.0,Calm,Calm,-,N/A,,Clear,0,2012-11-14 02:56:00
6:16 PM,-0.4,-4.0,85,29.96,10.0,SSE,4.6,-,N/A,,Clear,150,2012-11-14 03:16:00
6:36 PM,-0.4,-4.0,85,29.95,10.0,Calm,Calm,-,N/A,,Clear,0,2012-11-14 03:36:00
6:56 PM,-0.4,-0.4,100,29.94,10.0,Calm,Calm,-,N/A,,Clear,0,2012-11-14 03:56:00
7:16 PM,-0.4,-5.8,78,29.93,10.0,Calm,Calm,-,N/A,,Clear,0,2012-11-14 04:16:00
7:36 PM,-0.4,-5.8,78,29.92,10.0,Calm,Calm,-,N/A,,Clear,0,2012-11-14 04:36:00
7:56 PM,-0.4,-5.8,78,29.92,10.0,Calm,Calm,-,N/A,,Clear,0,2012-11-14 04:56:00
8:16 PM,-0.4,-4.0,85,29.91,10.0,SSE,4.6,-,N/A,,Clear,160,2012-11-14 05:16:00
8:36 PM,-0.4,-2.2,92,29.90,10.0,Calm,Calm,-,N/A,,Clear,0,2012-11-14 05:36:00
8:56 PM,1.4,-2.2,85,29.89,10.0,SSE,3.5,-,N/A,,Clear,160,2012-11-14 05:56:00
9:16 PM,1.4,-0.4,92,29.88,10.0,Calm,Calm,-,N/A,,Clear,0,2012-11-14 06:16:00
9:36 PM,-0.4,-5.8,78,29.88,10.0,Calm,Calm,-,N/A,,Clear,0,2012-11-14 06:36:00
9:56 PM,3.2,-0.4,85,29.88,10.0,SSE,8.1,-,N/A,,Clear,150,2012-11-14 06:56:00
10:16 PM,3.2,-0.4,85,29.88,10.0,Calm,Calm,-,N/A,,Clear,0,2012-11-14 07:16:00
10:36 PM,5.0,3.2,92,29.87,10.0,SW,4.6,-,N/A,,Clear,220,2012-11-14 07:36:00
10:56 PM,10.4,3.2,73,29.86,10.0,South,3.5,-,N/A,,Clear,180,2012-11-14 07:56:00
11:16 PM,10.4,1.4,67,29.85,10.0,Calm,Calm,-,N/A,,Clear,0,2012-11-14 08:16:00
11:36 PM,10.4,3.2,73,29.85,10.0,WSW,3.5,-,N/A,,Clear,250,2012-11-14 08:36:00
11:56 PM,5.0,-4.0,66,29.84,10.0,Calm,Calm,-,N/A,,Clear,0,2012-11-14 08:56:00